#timestamp,LO_Frequency,Hit,StdDev 
1711418415.9,286046997.0,N
1711418435.7,286046993.9,N
1711418455.6,286046994.8,N
1711418475.4,286046994.0,N
1711418495.2,286046993.5,N
1711418515.1,286046996.2,N
1711418516.0,286046996.2,N
1711418535.8,286046998.5,N
1711418555.6,286047000.2,N
1711418575.5,286046999.8,N
1711418595.3,286047006.0,N
1711418615.2,286047007.3,N
1711418635.9,286047007.0,N
1711418655.7,286047008.4,N
1711418675.6,286047011.8,N
1711418695.4,286047014.8,N
1711418715.3,286047014.3,N
1711418735.1,286047017.0,Y
1711418736.0,286047017.0,P
1711418755.8,286047011.9,N
1711418775.7,286047010.9,N
1711418795.5,286047010.0,N
1711418815.4,286047006.9,N
1711418835.2,286047004.5,N
1711418855.0,286047004.6,N
1711418855.9,286047004.6,N
1711418875.8,286047003.5,N
1711418895.6,286047002.9,N
1711418915.4,286047001.5,N
1711418935.3,286046998.2,N
1711418955.1,286046999.9,N
1711418975.9,286047002.2,N
1711418995.7,286047004.8,N
1711419015.5,286047009.2,N
1711419035.4,286047007.6,N
1711419055.2,286047005.9,N
1711419075.0,286047005.7,N
1711419075.9,286047005.7,N
1711419095.8,286046999.2,N
1711419115.6,286046992.5,N
1711419135.5,286046988.3,N
1711419155.3,286046985.2,N
1711419175.1,286046986.4,N
1711419195.9,286046989.7,N
1711419215.7,286046988.8,N
1711419235.5,286046990.9,N
1711419255.4,286046985.5,N
1711419275.2,286046984.9,N
1711419295.0,286046985.3,N
1711419296.0,286046985.3,N
1711419315.8,286046983.7,N
1711419335.6,286046978.9,N
1711419355.5,286046982.8,N
1711419375.3,286046983.6,N
1711419395.1,286046981.8,N
1711419415.9,286046982.6,N
1711419435.7,286046985.9,N
1711419455.6,286046988.4,N
1711419475.4,286046994.8,N
1711419495.2,286046996.4,N
1711419515.1,286046997.4,N
1711419516.0,286046997.4,N
1711419535.8,286046996.5,N
1711419555.6,286046996.9,N
1711419575.5,286046995.6,N
1711419625.3,286047000.9,E
1711419635.3,286047001.2,N
1711419655.1,286046999.3,P
1711419675.8,286046995.1,P
1711419695.7,286046997.7,N
1711419715.5,286046998.6,N
1711419735.4,286046997.2,N
1711419755.2,286046997.3,N
1711419775.0,286046993.4,Y
1711419775.9,286046993.4,P
1711419795.8,286046992.3,P
1711419815.6,286046987.5,P
1711419835.4,286046985.3,Y
1711419855.3,286046994.5,P
1711419875.1,286046993.8,P
1711419895.9,286046992.1,P
1711419915.7,286046990.7,Y
1711419935.5,286046999.5,P
1711419955.4,286046999.9,N
1711419975.2,286046999.8,N
1711419995.0,286047002.8,N
1711419996.0,286047002.8,N
1711420015.8,286047007.5,N
1711420035.6,286047009.3,N
1711420055.5,286047011.0,N
1711420075.3,286047013.3,N
1711420095.1,286047016.1,N
1711420115.9,286047023.2,Y
1711420135.7,286047020.0,P
1711420155.6,286047014.8,N
1711420175.4,286047016.8,N
1711420195.2,286047018.7,Y
1711420215.1,286047002.6,P
1711420216.0,286047002.6,N
1711420235.8,286047003.2,N
1711420255.6,286047005.7,N
1711420275.5,286047001.8,N
1711420295.3,286047002.6,N
1711420315.2,286047003.3,N
1711420335.9,286047007.6,N
1711420355.7,286047004.1,N
1711420375.6,286047002.0,N
1711420395.4,286047005.5,N
1711420415.2,286047005.7,N
1711420435.1,286047007.6,N
1711420436.0,286047007.6,N
1711420455.8,286047007.6,N
1711420475.7,286047003.4,N
1711420495.5,286047004.4,N
1711420515.3,286046999.8,N
1711420535.2,286046995.1,N
1711420555.0,286046996.6,N
1711420555.9,286046996.6,N
1711420575.8,286046997.2,N
1711420595.6,286046995.3,N
1711420615.4,286046996.1,N
1711420635.3,286046997.7,N
1711420655.1,286046994.0,N
1711420675.8,286046990.2,N
1711420695.7,286046989.0,N
1711420715.5,286046993.4,N
1711420735.4,286046997.8,N
1711420755.2,286046994.6,N
1711420775.0,286046994.9,N
1711420775.9,286046994.9,N
1711420795.8,286046995.8,N
1711420815.6,286046996.4,N
1711420835.4,286047000.7,N
1711420855.3,286047004.5,N
1711420875.1,286047006.7,N
1711420895.9,286047004.4,N
1711420915.7,286047005.0,N
1711420935.5,286047008.3,N
1711420955.4,286047009.7,N
1711420975.2,286047011.6,N
1711420995.0,286047013.1,N
1711420995.9,286047013.1,N
1711421015.8,286047014.3,N
1711421035.6,286047011.3,N
1711421055.5,286047009.8,N
1711421075.3,286047009.7,N
1711421095.1,286047012.3,N
1711421115.9,286047010.2,N
1711421135.7,286047007.7,N
1711421155.6,286047006.5,N
1711421175.4,286047006.7,N
1711421195.2,286047003.4,N
1711421215.1,286047003.8,N
1711421216.0,286047003.8,N
1711421235.8,286047001.6,N
1711421255.6,286047003.7,N
1711421275.5,286047003.5,N
1711421295.3,286047007.0,N
1711421315.2,286047006.3,N
1711421335.9,286047006.2,N
1711421355.7,286047010.5,N
1711421375.6,286047008.4,N
1711421395.4,286047010.0,N
1711421415.3,286047006.1,N
1711421435.1,286047010.7,Y
1711421436.0,286047010.7,P
1711421455.8,286047002.9,N
1711421475.7,286046999.8,N
1711421495.5,286046998.8,N
1711421515.3,286047000.5,N
1711421535.2,286046998.1,N
1711421555.0,286047003.6,N
1711421555.9,286047003.6,N
1711421575.8,286047005.0,N
1711421595.6,286047009.1,N
1711421615.4,286047010.1,N
1711421635.3,286047011.4,N
1711421655.1,286047008.6,N
1711421675.9,286047006.2,N
1711421695.7,286047009.0,N
1711421715.5,286047010.7,N
1711421735.4,286047006.8,N
1711421755.2,286047005.7,N
1711421775.0,286047009.1,N
1711421775.9,286047009.1,N
1711421795.8,286047008.8,N
1711421815.6,286047004.6,N
1711421835.5,286047004.6,N
1711421855.3,286047007.9,N
1711421875.1,286047007.8,N
1711421895.9,286047007.9,N
1711421915.7,286047008.8,N
1711421935.5,286047006.2,N
1711421955.4,286047008.3,N
1711421975.2,286047010.3,N
1711421995.1,286047010.3,N
1711421996.0,286047010.3,N
